CW7595 Weather Reports


Display with metric or nautical units.
time (UTC)temp
F
wind
direction
speed
MPH
gust
MPH
rain 1hr
in
rain 24hr
in
rain mn
in
humidity
%
barometer
mb
20260509121540 45 171 0.0 0.0 0.00 0.03 0.00 66 1011.5
20260509120036 44 189 0.0 0.0 0.00 0.03 0.00 67 1011.4
20260509114534 42 175 0.0 0.0 0.00 0.03 0.00 70 1011.4
20260509113027 41 176 0.0 0.0 0.00 0.03 0.00 73 1011.3
20260509111525 40 176 0.0 0.0 0.00 0.03 0.00 74 1011.3
20260509110024 39 174 0.0 0.0 0.00 0.04 0.00 75 1011.2
20260509104521 39 174 0.0 0.0 0.00 0.04 0.00 77 1011.0
20260509103019 37 174 0.0 0.0 0.00 0.04 0.00 80 1010.8
20260509101517 36 174 0.0 0.0 0.00 0.04 0.00 81 1010.6
20260509100016 36 174 0.0 0.0 0.00 0.04 0.00 80 1010.4
20260509094515 36 174 0.0 0.0 0.00 0.04 0.00 80 1010.3
20260509093013 36 174 0.0 0.0 0.00 0.04 0.00 80 1010.1
20260509091520 36 174 0.0 0.0 0.00 0.04 0.00 80 1010.0
20260509090009 36 174 0.0 0.0 0.00 0.04 0.00 80 1009.8
20260509084517 36 174 0.0 0.0 0.00 0.04 0.00 80 1009.7
20260509083006 36 174 0.0 0.0 0.00 0.04 0.00 80 1009.6
20260509081505 37 174 0.0 0.0 0.00 0.04 0.00 79 1009.6
20260509080001 37 174 0.0 0.0 0.00 0.04 0.00 78 1009.4
20260509074600 38 174 0.0 0.0 0.00 0.04 0.00 77 1009.3
20260509073211 38 174 0.0 0.0 0.00 0.04 0.00 77 1009.2
20260509071558 38 173 0.0 0.0 0.00 0.04 0.00 77 1009.3
20260509070100 38 202 0.0 0.0 0.00 0.04 0.00 78 1009.3
20260509064555 38 179 0.0 0.0 0.00 0.04 0.00 79 1009.1
20260509063054 38 176 0.0 0.0 0.00 0.04 0.00 78 1009.0
20260509061556 39 196 0.0 0.0 0.00 0.04 0.00 79 1008.9
20260509060051 38 196 0.0 0.0 0.00 0.04 0.00 80 1008.7
20260509054554 37 197 0.0 0.0 0.00 0.04 0.00 80 1008.6
20260509053051 38 197 0.0 0.0 0.00 0.04 0.00 79 1008.5
20260509051557 38 197 0.0 0.0 0.00 0.04 0.00 79 1008.4
20260509050044 38 197 0.0 0.0 0.00 0.04 0.00 78 1008.3
20260509044541 39 197 0.0 0.0 0.00 0.04 0.00 77 1008.2
20260509043046 40 197 0.0 0.0 0.00 0.04 0.00 77 1008.0
20260509041536 40 197 0.0 0.0 0.00 0.04 0.00 76 1007.8
20260509040033 41 197 0.0 0.0 0.00 0.04 0.04 76 1007.7
20260509034532 41 207 0.0 0.0 0.00 0.04 0.04 76 1007.5
20260509033032 41 207 0.0 0.0 0.00 0.04 0.04 77 1007.6
20260509031533 41 210 0.0 0.0 0.00 0.04 0.04 78 1007.4
20260509030039 41 213 0.0 0.0 0.00 0.04 0.04 79 1007.6
20260509024530 41 201 0.0 0.0 0.00 0.04 0.04 78 1007.4
20260509023028 42 201 0.0 0.0 0.00 0.04 0.04 77 1007.3
20260509021527 42 200 0.0 0.0 0.00 0.04 0.04 77 1007.1
20260509020026 43 200 0.0 0.0 0.00 0.04 0.04 76 1007.0
20260509014526 43 201 0.0 0.0 0.00 0.04 0.04 75 1007.0
20260509013042 43 189 0.0 0.0 0.00 0.04 0.04 76 1006.9
20260509011523 43 197 0.0 0.0 0.00 0.04 0.04 76 1006.8
20260509010025 43 197 0.0 0.0 0.00 0.04 0.04 76 1006.5
20260509004534 43 197 0.0 0.0 0.00 0.04 0.04 74 1006.3
20260509003017 44 197 0.0 0.0 0.00 0.04 0.04 73 1006.1
20260509001515 44 197 0.0 0.0 0.00 0.04 0.04 75 1005.9
20260509000014 44 197 0.0 0.0 0.00 0.04 0.04 75 1005.7
20260508234512 44 197 0.0 0.0 0.00 0.04 0.04 75 1005.5
20260508233011 44 197 0.0 0.0 0.00 0.04 0.04 74 1005.4
20260508231509 44 197 0.0 0.0 0.00 0.04 0.04 74 1005.2
20260508230023 45 197 0.0 0.0 0.00 0.04 0.04 73 1005.1
20260508224506 45 196 0.0 0.0 0.00 0.04 0.04 71 1004.8
20260508223006 45 190 0.0 0.0 0.02 0.04 0.04 70 1004.9
20260508221503 46 191 0.0 1.0 0.02 0.04 0.04 70 1004.6
20260508220008 45 166 3.0 7.0 0.02 0.16 0.04 75 1004.3
20260508214502 44 191 0.0 1.0 0.02 0.16 0.04 72 1004.4
20260508213100 49 262 5.0 18.0 0.00 0.14 0.02 59 1004.5
20260508211601 50 246 0.0 0.0 0.00 0.14 0.02 59 1004.0
20260508210113 50 198 0.0 0.0 0.00 0.15 0.02 56 1003.8
20260508204556 51 188 0.0 6.0 0.00 0.15 0.02 54 1003.6
20260508203054 50 184 0.0 8.0 0.00 0.15 0.02 57 1003.4
20260508201555 49 182 1.0 8.0 0.00 0.15 0.02 62 1003.3
20260508200056 50 194 0.0 6.0 0.00 0.15 0.02 63 1003.5
20260508194552 50 185 2.0 8.0 0.00 0.15 0.02 61 1003.4
20260508193054 50 198 0.0 0.0 0.00 0.15 0.02 60 1003.4
20260508191552 48 186 0.0 0.0 0.01 0.15 0.02 64 1003.4
20260508184611 44 169 0.0 1.0 0.01 0.15 0.02 72 1003.3
20260508183050 45 192 0.0 7.0 0.01 0.15 0.02 69 1003.6
20260508181559 47 281 6.0 15.0 0.00 0.14 0.01 61 1003.5
20260508180047 49 258 0.0 5.0 0.00 0.14 0.01 60 1003.3
20260508174547 52 196 0.0 7.0 0.00 0.14 0.01 51 1002.9
20260508173049 50 205 0.0 10.0 0.00 0.14 0.01 53 1002.8
20260508171545 48 184 1.0 6.0 0.00 0.14 0.01 55 1002.7
20260508170045 51 284 4.0 12.0 0.00 0.14 0.01 46 1002.7
20260508164557 52 301 3.0 10.0 0.00 0.14 0.01 42 1002.7
20260508163043 53 317 4.0 9.0 0.00 0.14 0.01 46 1002.6
20260508161546 52 327 0.0 0.0 0.00 0.14 0.01 50 1002.8
20260508160038 51 305 3.0 11.0 0.00 0.14 0.01 46 1002.8
20260508154538 50 327 2.0 10.0 0.00 0.14 0.01 50 1003.0
20260508153034 49 272 4.0 9.0 0.00 0.14 0.01 55 1003.2
20260508151534 48 322 3.0 9.0 0.00 0.14 0.01 57 1003.4
20260508150036 48 244 1.0 9.0 0.00 0.14 0.01 63 1003.3
20260508144546 47 360 4.0 14.0 0.00 0.14 0.01 63 1003.3
20260508143034 49 274 6.0 12.0 0.00 0.14 0.01 59 1003.3
20260508141531 49 302 3.0 7.0 0.00 0.14 0.01 52 1003.2
20260508140030 49 246 5.0 13.0 0.00 0.14 0.01 52 1003.3
20260508134536 49 345 6.0 13.0 0.00 0.14 0.01 57 1003.2
20260508133031 48 294 3.0 11.0 0.00 0.14 0.01 63 1003.3
20260508131521 47 281 5.0 10.0 0.00 0.14 0.01 64 1003.2
20260508130017 45 299 5.0 11.0 0.00 0.14 0.01 71 1003.1
20260508124514 44 259 4.0 10.0 0.00 0.14 0.01 73 1003.2
20260508123010 43 311 4.0 9.0 0.00 0.14 0.01 78 1003.1